Kaneohe MCBH, HI

9:05 PM HST on March 26, 2017 (GMT -1000)
Kaneohe Bay Marine Corps Air Facility

Weather History for PHNG - December, 2011

Change the Weather History Date:

Saturday, December 10, 2011

  Actual Average Record
Temperature  
Mean Temperature 72 °F -  
Max Temperature 75 °F 76 °F 84 °F (1997)
Min Temperature 69 °F 68 °F 66 °F (1997)
Cooling Degree Days 7    
Growing Degree Days 22 (Base 50)    
Moisture  
Dew Point 66 °F    
Average Humidity 79    
Maximum Humidity 94    
Minimum Humidity 69    
Precipitation  
Precipitation 1.10 in - - ()
Sea Level Pressure  
Sea Level Pressure 30.04 in    
Wind  
Wind Speed 12 mph (ENE)    
Max Wind Speed 22 mph    
Max Gust Speed 33 mph    
Visibility 9 miles    
Events Rain    
Averages and records for this station are not official NWS values.
T = Trace of Precipitation, MM = Missing Value Source: NWS Daily Summary

Daily Weather History Graph

Daily Weather History Graph

Search for Another Location

Airport or City:

Trip Planner

Search our weather history database for the weather conditions in past years. The results will help you decide how hot, cold, wet, or windy it might be!

Date:

Astronomy

Dec. 10, 2011 Rise Set
Actual Time 6:58 AM HST 5:49 PM HST
Civil Twilight 6:33 AM HST 6:13 PM HST
Nautical Twilight 6:06 AM HST 6:41 PM HST
Astronomical Twilight 5:38 AM HST 7:08 PM HST
Moon 6:15 PM HST (12/10) 7:05 AM HST (12/10)
Length of Visible Light 11h 39m
Length of Day
10h 51m
Full, 100% of the Moon is Illuminated
Dec 10
Full
Dec 17
Last Quarter
Dec 24
New
Dec 31
First Quarter
Jan 8
Full

Hourly Weather History & Observations

Time (HST) Temp. Dew Point Humidity Pressure Visibility Wind Dir Wind Speed Gust Speed Precip Events Conditions
12:57 AM 72.0 °F 62.1 °F 71% 30.07 in 10.0 mi ENE 9.2 mph 21.9 mph N/A   Mostly Cloudy
1:57 AM 70.0 °F 61.0 °F 73% 30.06 in 10.0 mi NE 15.0 mph 28.8 mph 0.00 in Rain Light Rain
2:57 AM 70.0 °F 66.0 °F 87% 30.06 in 10.0 mi SE 8.1 mph - 0.07 in Rain Light Rain
3:57 AM 72.0 °F 64.9 °F 78% 30.04 in 10.0 mi ENE 11.5 mph 19.6 mph 0.00 in   Mostly Cloudy
4:57 AM 72.0 °F 63.0 °F 73% 30.03 in 10.0 mi NE 10.4 mph 20.7 mph N/A   Scattered Clouds
5:45 AM 73.4 °F 64.4 °F 73% 30.04 in 6.2 mi NE 13.8 mph 21.9 mph N/A   Mostly Cloudy
5:57 AM - - N/A% - 10.0 mi NE 12.7 mph - N/A   Mostly Cloudy
6:19 AM 73.4 °F 64.4 °F 73% 30.05 in 6.2 mi NE 15.0 mph 21.9 mph N/A   Scattered Clouds
6:57 AM 72.0 °F 64.0 °F 76% 30.05 in 10.0 mi ENE 13.8 mph 21.9 mph 0.00 in   Mostly Cloudy
7:57 AM 73.0 °F 64.9 °F 76% 30.06 in 10.0 mi NE 13.8 mph - N/A   Mostly Cloudy
8:09 AM 73.4 °F 64.4 °F 73% 30.08 in 10.0 mi NE 11.5 mph 19.6 mph N/A   Scattered Clouds
8:57 AM 75.0 °F 66.0 °F 73% 30.07 in 10.0 mi NE 15.0 mph 23.0 mph N/A   Partly Cloudy
9:57 AM 75.0 °F 64.9 °F 71% 30.08 in 10.0 mi ENE 12.7 mph - N/A   Mostly Cloudy
10:57 AM 75.0 °F 66.9 °F 76% 30.06 in 10.0 mi ENE 10.4 mph 17.3 mph N/A   Mostly Cloudy
11:57 AM 73.0 °F 68.0 °F 84% 30.04 in 10.0 mi ENE 11.5 mph 24.2 mph 0.00 in Rain Light Rain
12:57 PM 75.9 °F 69.1 °F 79% 30.01 in 10.0 mi NE 10.4 mph - 0.00 in   Mostly Cloudy
1:16 PM 73.4 °F 66.2 °F 78% 30.02 in 10.0 mi ENE 11.5 mph 19.6 mph 0.00 in Rain Light Rain
1:30 PM 73.4 °F 66.2 °F 78% 30.01 in 10.0 mi ENE 11.5 mph 20.7 mph 0.00 in   Mostly Cloudy
1:57 PM 75.9 °F 66.0 °F 71% 30.00 in 10.0 mi East 10.4 mph 17.3 mph 0.00 in   Partly Cloudy
2:57 PM 75.9 °F 66.9 °F 74% 29.99 in 10.0 mi ENE 13.8 mph 19.6 mph N/A   Scattered Clouds
3:57 PM 75.9 °F 64.9 °F 69% 29.99 in 10.0 mi NE 12.7 mph 20.7 mph N/A   Scattered Clouds
4:57 PM 75.0 °F 66.0 °F 73% 30.00 in 10.0 mi ENE 11.5 mph 18.4 mph N/A   Mostly Cloudy
5:24 PM 75.2 °F 66.2 °F 73% 30.02 in 10.0 mi ENE 15.0 mph 21.9 mph N/A   Mostly Cloudy
5:32 PM 73.4 °F 66.2 °F 78% 30.02 in 10.0 mi NE 12.7 mph 21.9 mph N/A   Scattered Clouds
5:57 PM 73.9 °F 66.9 °F 79% 30.02 in 10.0 mi NE 16.1 mph 23.0 mph 0.00 in Rain Light Rain
6:57 PM 71.1 °F 68.0 °F 90% 30.04 in 10.0 mi NE 21.9 mph 28.8 mph 0.09 in Rain Heavy Rain
7:07 PM 69.8 °F 66.2 °F 88% 30.07 in 4.0 mi ENE 18.4 mph 28.8 mph 0.30 in Rain Heavy Rain
7:57 PM 72.0 °F 69.8 °F 93% 30.06 in 4.0 mi ENE 9.2 mph - 0.67 in   Overcast
8:04 PM 73.4 °F - N/A% 30.06 in 10.0 mi ENE 11.5 mph 18.4 mph N/A   Overcast
8:48 PM 71.6 °F 69.8 °F 94% 30.08 in 10.0 mi NE 6.9 mph 33.4 mph 0.25 in Rain Heavy Rain
8:57 PM 72.0 °F 69.8 °F 93% 30.06 in 10.0 mi ENE 11.5 mph 21.9 mph 0.25 in   Overcast
9:57 PM 72.0 °F 66.0 °F 81% 30.08 in 10.0 mi ENE 9.2 mph 21.9 mph N/A   Mostly Cloudy
10:57 PM 73.0 °F 68.0 °F 84% 30.06 in 10.0 mi East 8.1 mph - N/A   Scattered Clouds
11:57 PM 72.0 °F 66.9 °F 84% 30.05 in 10.0 mi ENE 6.9 mph 17.3 mph 0.02 in   Overcast